Flag for Austria Weather past 2 weeks in Leoben, Styria, Austria

32 °F

Passing clouds.

Feels Like: 32 °F
Forecast: 23 / 37 °F
Wind: 1 mph from Northwest

Location: Zeltweg

Current Time: Nov 28, 2015 at 12:27:56 AM

Latest Report: Nov 27, 2015 at 9:50 PM

Visibility: 12 mi

Pressure: 29.89 "Hg (27.94 "Hg at 540m altitude)

Humidity: 80%

Dew point: 27 °F

Location of LeobenLocation

Historic Weather in Leoben — Graph


Leoben temperature yesterday

Maximum temperature yesterday: 37 °F (at 11:50 AM)
Minimum temperature yesterday: 23 °F (at 4:50 AM)
Average temperature yesterday: 31 °F

Past Weeks' High & Low Weather Summary

High70 °F (Nov 18, 1:20 PM)100% (Nov 12, 9:50 PM)30.39 "Hg (Nov 12, 9:50 PM)
Low14 °F (Nov 24, 6:50 AM)18% (Nov 18, 1:20 PM)29.33 "Hg (Nov 21, 5:50 PM)
Average38 °F74%29.95 "Hg
* Reported Nov 12 9:50 PM — Nov 27 9:50 PM, Leoben, Weather by CustomWeather, © 2015

Note: Actual official high and low records may vary slightly from our data, if they occured in-between our weather recording intervals... More about our weather records


Leoben weather history for previous 24 hours

Time TempWeatherWind HumidityBarometerVisibility
9:50 PM
Fri, Nov 27
32 °FPassing clouds.1 mph80%29.89 "Hg12 mi
8:50 PM34 °FPassing clouds.3 mph70%29.89 "Hg12 mi
7:50 PM32 °FPassing clouds.3 mph75%29.92 "Hg12 mi
6:50 PM32 °FPassing clouds.1 mph75%29.92 "Hg12 mi
5:50 PM34 °FPassing clouds.1 mph70%29.92 "Hg19 mi
4:50 PM36 °FPassing clouds.1 mph60%29.92 "Hg19 mi
3:50 PM36 °FPartly sunny.9 mph60%29.92 "Hg19 mi
3:20 PM36 °FPartly sunny.12 mph60%29.92 "Hg19 mi
2:50 PM36 °FPartly sunny.7 mph60%29.92 "Hg19 mi
2:20 PM37 °FPartly sunny.8 mph56%29.92 "Hg19 mi
1:50 PM37 °FPartly sunny.7 mph56%29.92 "Hg19 mi
12:50 PM37 °FPartly sunny.1 mph60%29.95 "Hg19 mi
11:50 AM37 °FPartly sunny.1 mph56%29.98 "Hg19 mi
11:20 AM36 °FPartly sunny.2 mph65%29.98 "Hg19 mi
10:50 AM34 °FScattered clouds.2 mph81%29.98 "Hg19 mi
10:20 AM32 °FPassing clouds.1 mph80%30.01 "Hg19 mi
9:50 AM30 °FScattered clouds.2 mph86%30.01 "Hg19 mi
9:20 AM27 °FScattered clouds.1 mph86%30.01 "Hg25 mi
8:50 AM23 °FScattered clouds.2 mph86%30.01 "Hg19 mi
7:50 AM23 °FScattered clouds.2 mph86%30.01 "Hg19 mi
7:20 AM25 °FPassing clouds.3 mph86%29.98 "Hg19 mi
6:50 AM23 °FPassing clouds.3 mph86%29.98 "Hg12 mi
5:50 AM25 °FPassing clouds.1 mph86%29.98 "Hg9 mi
4:50 AM23 °FPassing clouds.3 mph86%29.98 "Hg9 mi
3:50 AM27 °FPassing clouds.2 mph86%29.98 "Hg9 mi
Weather by CustomWeather, © 2015

See weather overviewHow to use our weather pages